Weather in Kultuk

Russia / Irkutsk Oblast     51°43′31″N   103°42′33″E
temp.,
°C
wind,
m/s
gust,
m/s
humid.,
%
clouds,
%
prec.,
mm/h
press.,
hPa
HPBL,
m
9 may, sun
sun923:00+5w3391100 0.1 101447
02:00+4wnw229394 0.6 101434
05:00+4wsw229362 0.2 101345
08:00+5wnw018837 0.2 1012246
11:00+9ese0365100 0.0 1010814
14:00+9ese346278 0.0 1008751
17:00+9n5777100 0.1 1008605
20:00+5nnw1489100 0.4 1011457
10 may, mon
mon1023:00+4sw2294100 0.5 1013256
02:00+3n2394100 0.9 1013358
05:00+2wnw2598100 1.0 1014426
08:00+2wnw2497100 3.4 1016271
11:00+3nw2482100 0.8 1016556
14:00+6nnw356488 1.0 1015970
17:00+5nnw487591 0.4 1015753
20:00+4nw3782100 0.6 1018758
11 may, tue
tue1123:00+3w3683100 0.1 1018354
02:00+2w3697100 1.5 1018340
05:00+1wsw3499100 3.8 1019123
08:00+2w359795 4.7 1020189
11:00+5wnw368153 0.1 1019537
14:00+8nnw236829 0.3 1017902
17:00+9nw136260 0.4 1015986
20:00+7sw22764 0.6 101611
12 may, wed
wed1223:00+3w33871 0.0 101828
02:00+2w33860 0.0 101730
05:00+1w32861 0.0 101628
08:00+6w227089 0.0 1014139
11:00+10e1154100 0.0 1011766
14:00+9se225548 0.1 10101058
17:00+9ene235796 0.1 1010846
20:00+8w2381100 0.6 1012102
13 may, thu
thu1323:00+6wnw3686100 0.9 1015363
02:00+4wsw3388100 1.6 101863
05:00+4w2382100 0.3 101940
08:00+5nw356889 0.4 1021586
11:00+7nnw4647100 0.1 10201454
14:00+9nnw363699 0.1 10191994
17:00+10n353398 0.0 10171803
20:00+7ene125010 0.0 101814